Retour au catalogue

DMSP 5D-2 F13 DEB

ActifSSO
NORAD 40525·DEBRIS·🇺🇸 United States

Lancé Mar 24, 1995 depuis Vandenberg Space Force Base

Loading…

Prochains Passages (prochaines 24 heures)

TLE

FraisSource: Space-Track

Époque: Sep 14, 2026, 01:43 UTC

1 40525U 95015DM  26257.07204020  .00003077  00000-0  98500-3 0  9995
2 40525  98.6721 300.8808 0010211 356.3183   3.7928 14.40277242594945

Suivez DMSP 5D-2 F13 DEB en temps réel avec AllMySat

Download on the App Store